Overview Statistics Trail Chart Weather Telemetry Raw packets
 

This is the latest recevied weather packets stored in our database for station/object WP3OF-2. If no packets are shown the sender has not sent any weather packets the latest 10 day(s).

<< 28 29 30 31 32 33 34 >>
Time Temp. Humidity Pressure Rain* Wind** Luminosity Snow
1788370980 21.11° C 99% 1026 hPa 8.89 mm - 60 W/m² -
1788370676 21.11° C 99% 1026 hPa 8.89 mm - 60 W/m² -
1788370374 21.11° C 99% 1026 hPa 8.89 mm - 60 W/m² -
1788370069 21.67° C 99% 1026 hPa 18.54 mm - 103 W/m² -
1788369763 21.67° C 99% 1026.7 hPa 14.99 mm - 101 W/m² -
1788369459 21.67° C 99% 1026.7 hPa 14.99 mm - 101 W/m² -
1788369159 21.11° C 97% 1026.7 hPa 3.05 mm - 143 W/m² -
1788368855 21.67° C 95% 1026.7 hPa 0 mm - 234 W/m² -
1788368550 22.78° C 93% 1026.7 hPa 0 mm - 336 W/m² -
1788368246 22.78° C 93% 1026.7 hPa 0 mm - 336 W/m² -
1788367940 22.78° C 95% 1026.7 hPa 0 mm - 241 W/m² -
1788367634 23.33° C 95% 1026.7 hPa 0 mm - 973 W/m² -
1788367329 23.33° C 95% 1026.7 hPa 0 mm - 973 W/m² -
1788367024 23.33° C 95% 1026.7 hPa 0 mm - 535 W/m² -
1788366723 24.44° C 92% 1027.1 hPa 0 mm - 270 W/m² -
1788366421 24.44° C 92% 1027.1 hPa 0 mm - 270 W/m² -
1788366116 25° C 89% 1027.1 hPa 0 mm - 269 W/m² -
1788365811 24.44° C 92% 1027.1 hPa 0 mm - 832 W/m² -
1788365507 24.44° C 92% 1027.1 hPa 0 mm - 832 W/m² -
1788365204 25° C 89% 1027.1 hPa 0 mm - 894 W/m² -
1788364898 25° C 89% 1027.1 hPa 0 mm - 925 W/m² -
1788364596 24.44° C 91% 1027.4 hPa 0 mm - 853 W/m² -
1788364295 23.89° C 92% 1027.4 hPa 0 mm - 864 W/m² -
1788363990 23.89° C 94% 1027.4 hPa 0 mm - 989 W/m² -
1788363685 23.89° C 92% 1027.9 hPa 0 mm - 202 W/m² -

* Rain latest hour (hover to see other rain measurements)
** Current wind speed in m/s (hover to see current wind gust speed)